Time,TemperatureF,DewpointF,PressureIn,WindDirection,WindDirectionDegrees,WindSpeedMPH,WindSpeedGustMPH,Humidity,HourlyPrecipIn,Conditions,Clouds,dailyrainin,SoftwareType,DateUTC
2013-05-26 00:03:00,50.0,47.0,30.30,ESE,105,0.0,0.0,88,0.03,,,-99.99,,2013-05-26 04:03:00,
2013-05-26 00:12:00,50.0,47.0,30.30,ESE,105,0.0,0.0,88,0.03,,,-99.99,,2013-05-26 04:12:00,
2013-05-26 00:23:00,50.0,47.0,30.30,ESE,105,0.0,0.0,90,0.03,,,-99.99,,2013-05-26 04:23:00,
2013-05-26 00:33:00,49.0,47.0,30.30,ESE,105,0.0,0.0,92,0.03,,,-99.99,,2013-05-26 04:33:00,
2013-05-26 00:42:00,49.0,47.0,30.30,ESE,105,0.0,0.0,92,0.03,,,-99.99,,2013-05-26 04:42:00,
2013-05-26 00:52:00,48.0,46.0,30.30,ESE,105,0.0,0.0,94,0.03,,,-99.99,,2013-05-26 04:52:00,
2013-05-26 01:02:00,48.0,46.0,30.30,ESE,105,0.0,0.0,94,0.03,,,-99.99,,2013-05-26 05:02:00,
2013-05-26 01:12:00,48.0,46.0,30.30,ESE,105,0.0,0.0,94,0.03,,,-99.99,,2013-05-26 05:12:00,
2013-05-26 01:22:00,48.0,47.0,30.30,ESE,105,0.0,0.0,95,0.03,,,-99.99,,2013-05-26 05:22:00,
2013-05-26 01:32:00,47.0,46.0,30.30,ESE,105,0.0,0.0,98,0.03,,,-99.99,,2013-05-26 05:32:00,
2013-05-26 01:42:00,47.0,46.0,30.30,ESE,105,0.0,0.0,98,0.03,,,-99.99,,2013-05-26 05:42:00,
2013-05-26 01:52:00,46.0,46.0,30.30,NE,49,0.0,0.0,99,0.03,,,-99.99,,2013-05-26 05:52:00,
2013-05-26 02:01:00,46.0,46.0,30.30,NE,49,0.0,0.0,100,0.03,,,-99.99,,2013-05-26 06:01:00,
2013-05-26 02:12:00,46.0,46.0,30.30,NE,49,0.0,0.0,100,0.03,,,-99.99,,2013-05-26 06:12:00,
2013-05-26 02:22:00,46.0,46.0,30.30,SE,142,2.0,0.0,99,0.03,,,-99.99,,2013-05-26 06:22:00,
2013-05-26 02:32:00,46.0,46.0,30.30,East,83,3.0,0.0,99,0.03,,,-99.99,,2013-05-26 06:32:00,
2013-05-26 02:42:00,46.0,46.0,30.30,East,83,3.0,0.0,99,0.03,,,-99.99,,2013-05-26 06:42:00,
2013-05-26 02:52:00,47.0,46.0,30.31,ESE,121,0.0,0.0,97,0.03,,,-99.99,,2013-05-26 06:52:00,
2013-05-26 03:01:00,47.0,46.0,30.30,SE,138,3.0,0.0,98,0.03,,,-99.99,,2013-05-26 07:01:00,
2013-05-26 03:11:00,47.0,46.0,30.30,SE,138,3.0,0.0,98,0.03,,,-99.99,,2013-05-26 07:11:00,
2013-05-26 03:22:00,47.0,46.0,30.30,SE,141,2.0,0.0,96,0.03,,,-99.99,,2013-05-26 07:22:00,
2013-05-26 03:32:00,47.0,46.0,30.30,SE,127,0.0,0.0,95,0.03,,,-99.99,,2013-05-26 07:32:00,
2013-05-26 03:42:00,47.0,46.0,30.30,SE,127,0.0,0.0,95,0.03,,,-99.99,,2013-05-26 07:42:00,
2013-05-26 03:52:00,47.0,45.0,30.30,ESE,121,0.0,0.0,91,0.03,,,-99.99,,2013-05-26 07:52:00,
2013-05-26 04:01:00,47.0,45.0,30.30,East,80,1.0,0.0,91,0.03,,,-99.99,,2013-05-26 08:01:00,
2013-05-26 04:12:00,47.0,45.0,30.30,East,80,1.0,0.0,91,0.03,,,-99.99,,2013-05-26 08:12:00,
2013-05-26 04:21:00,47.0,44.0,30.30,SE,132,1.0,0.0,90,0.03,,,-99.99,,2013-05-26 08:21:00,
2013-05-26 04:32:00,47.0,44.0,30.30,SE,132,0.0,0.0,88,0.03,,,-99.99,,2013-05-26 08:32:00,
2013-05-26 04:42:00,47.0,44.0,30.30,SE,132,0.0,0.0,88,0.03,,,-99.99,,2013-05-26 08:42:00,
2013-05-26 04:53:00,47.0,43.0,30.30,SE,132,0.0,0.0,87,0.03,,,-99.99,,2013-05-26 08:53:00,
2013-05-26 05:01:00,47.0,44.0,30.30,SE,132,0.0,0.0,88,0.03,,,-99.99,,2013-05-26 09:01:00,
2013-05-26 05:11:00,47.0,44.0,30.30,SE,132,0.0,0.0,88,0.03,,,-99.99,,2013-05-26 09:11:00,
2013-05-26 05:22:00,46.0,44.0,30.30,SE,132,0.0,0.0,91,0.03,,,-99.99,,2013-05-26 09:22:00,
2013-05-26 05:33:00,46.0,44.0,30.31,SE,132,0.0,0.0,91,0.03,,,-99.99,,2013-05-26 09:33:00,
2013-05-26 05:43:00,46.0,44.0,30.31,SE,132,0.0,0.0,91,0.03,,,-99.99,,2013-05-26 09:43:00,
2013-05-26 05:53:00,45.0,43.0,30.31,SE,132,0.0,0.0,92,0.03,,,-99.99,,2013-05-26 09:53:00,
2013-05-26 06:03:00,45.0,43.0,30.31,SE,132,0.0,0.0,93,0.03,,,-99.99,,2013-05-26 10:03:00,
2013-05-26 06:12:00,45.0,43.0,30.31,SE,132,0.0,0.0,93,0.03,,,-99.99,,2013-05-26 10:12:00,
2013-05-26 06:23:00,44.0,42.0,30.31,SE,132,0.0,0.0,94,0.03,,,-99.99,,2013-05-26 10:23:00,
2013-05-26 06:33:00,44.0,43.0,30.31,SE,132,0.0,0.0,95,0.03,,,-99.99,,2013-05-26 10:33:00,
2013-05-26 06:42:00,44.0,43.0,30.31,SE,132,0.0,0.0,95,0.03,,,-99.99,,2013-05-26 10:42:00,
2013-05-26 06:52:00,44.0,43.0,30.32,SE,132,0.0,0.0,95,0.03,,,-99.99,,2013-05-26 10:52:00,
2013-05-26 07:03:00,45.0,44.0,30.31,SE,132,0.0,0.0,95,0.03,,,-99.99,,2013-05-26 11:03:00,
2013-05-26 07:11:00,45.0,44.0,30.31,SE,132,0.0,0.0,95,0.03,,,-99.99,,2013-05-26 11:11:00,
2013-05-26 07:22:00,45.0,44.0,30.31,SE,132,0.0,0.0,95,0.03,,,-99.99,,2013-05-26 11:22:00,
2013-05-26 07:32:00,46.0,45.0,30.32,SE,132,0.0,0.0,95,0.03,,,-99.99,,2013-05-26 11:32:00,
2013-05-26 07:42:00,46.0,45.0,30.32,SE,132,0.0,0.0,95,0.03,,,-99.99,,2013-05-26 11:42:00,
2013-05-26 07:52:00,47.0,45.0,30.32,SE,132,0.0,0.0,94,0.03,,,-99.99,,2013-05-26 11:52:00,
2013-05-26 08:02:00,48.0,46.0,30.33,SE,132,0.0,0.0,93,0.03,,,-99.99,,2013-05-26 12:02:00,
2013-05-26 08:12:00,48.0,46.0,30.33,SE,132,0.0,0.0,93,0.03,,,-99.99,,2013-05-26 12:12:00,
2013-05-26 08:22:00,49.0,47.0,30.34,SE,132,0.0,0.0,92,0.03,,,-99.99,,2013-05-26 12:22:00,
2013-05-26 08:32:00,50.0,47.0,30.34,SE,132,0.0,0.0,90,0.03,,,-99.99,,2013-05-26 12:32:00,
2013-05-26 08:42:00,50.0,47.0,30.34,SE,132,0.0,0.0,90,0.03,,,-99.99,,2013-05-26 12:42:00,
2013-05-26 08:52:00,51.0,48.0,30.34,South,181,5.0,0.0,88,0.03,,,-99.99,,2013-05-26 12:52:00,
2013-05-26 09:02:00,51.0,48.0,30.34,South,181,5.0,0.0,88,0.03,,,-99.99,,2013-05-26 13:02:00,
2013-05-26 09:11:00,51.0,48.0,30.34,South,181,5.0,0.0,88,0.03,,,-99.99,,2013-05-26 13:11:00,
2013-05-26 09:22:00,51.0,48.0,30.34,South,181,5.0,0.0,88,0.03,,,-99.99,,2013-05-26 13:22:00,
2013-05-26 09:32:00,55.0,48.0,30.33,South,180,5.0,0.0,76,0.03,,,-99.99,,2013-05-26 13:32:00,
2013-05-26 09:42:00,55.0,48.0,30.33,South,180,5.0,0.0,76,0.03,,,-99.99,,2013-05-26 13:42:00,
2013-05-26 09:52:00,56.0,47.0,30.33,South,176,4.0,0.0,72,0.03,,,-99.99,,2013-05-26 13:52:00,
2013-05-26 10:02:00,57.0,46.0,30.33,SSW,203,7.0,0.0,67,0.03,,,-99.99,,2013-05-26 14:02:00,
2013-05-26 10:11:00,57.0,46.0,30.33,SSW,203,7.0,0.0,67,0.03,,,-99.99,,2013-05-26 14:11:00,
2013-05-26 10:22:00,57.0,46.0,30.33,SSW,203,7.0,0.0,67,0.03,,,-99.99,,2013-05-26 14:22:00,
2013-05-26 10:32:00,58.0,44.0,30.34,SSE,163,7.0,0.0,60,0.03,,,-99.99,,2013-05-26 14:32:00,
2013-05-26 10:42:00,58.0,44.0,30.34,SSE,163,7.0,0.0,60,0.03,,,-99.99,,2013-05-26 14:42:00,
2013-05-26 10:52:00,58.0,42.0,30.33,SSW,195,8.0,0.0,55,0.03,,,-99.99,,2013-05-26 14:52:00,
2013-05-26 11:02:00,58.0,42.0,30.33,SSW,195,8.0,0.0,55,0.03,,,-99.99,,2013-05-26 15:02:00,
2013-05-26 11:12:00,58.0,42.0,30.33,SSW,195,8.0,0.0,55,0.03,,,-99.99,,2013-05-26 15:12:00,
2013-05-26 11:22:00,60.0,42.0,30.33,SE,135,6.0,0.0,52,0.03,,,-99.99,,2013-05-26 15:22:00,
2013-05-26 11:33:00,60.0,42.0,30.33,South,187,8.0,0.0,52,0.03,,,-99.99,,2013-05-26 15:33:00,
2013-05-26 11:43:00,60.0,42.0,30.33,South,187,8.0,0.0,52,0.03,,,-99.99,,2013-05-26 15:43:00,
2013-05-26 11:53:00,61.0,43.0,30.32,SSE,166,4.0,0.0,52,0.03,,,-99.99,,2013-05-26 15:53:00,
2013-05-26 12:03:00,62.0,44.0,30.32,SSE,149,6.0,0.0,52,0.03,,,-99.99,,2013-05-26 16:03:00,
2013-05-26 12:12:00,62.0,44.0,30.32,SSE,149,6.0,0.0,52,0.03,,,-99.99,,2013-05-26 16:12:00,
2013-05-26 12:23:00,61.0,42.0,30.32,South,173,8.0,0.0,49,0.03,,,-99.99,,2013-05-26 16:23:00,
2013-05-26 12:33:00,62.0,43.0,30.32,SSW,193,8.0,0.0,49,0.03,,,-99.99,,2013-05-26 16:33:00,
2013-05-26 12:42:00,62.0,43.0,30.32,SSW,193,8.0,0.0,49,0.03,,,-99.99,,2013-05-26 16:42:00,
2013-05-26 12:52:00,62.0,41.0,30.32,ENE,60,8.0,0.0,46,0.03,,,-99.99,,2013-05-26 16:52:00,
2013-05-26 13:02:00,63.0,41.0,30.31,NE,55,6.0,0.0,44,0.03,,,-99.99,,2013-05-26 17:02:00,
2013-05-26 13:11:00,63.0,41.0,30.31,NE,55,6.0,0.0,44,0.03,,,-99.99,,2013-05-26 17:11:00,
2013-05-26 13:23:00,64.0,42.0,30.31,ENE,77,6.0,0.0,44,0.03,,,-99.99,,2013-05-26 17:23:00,
2013-05-26 13:32:00,64.0,42.0,30.30,SSE,159,5.0,0.0,45,0.03,,,-99.99,,2013-05-26 17:32:00,
2013-05-26 13:42:00,64.0,42.0,30.30,SSE,159,5.0,0.0,45,0.03,,,-99.99,,2013-05-26 17:42:00,
2013-05-26 13:52:00,65.0,41.0,30.30,ESE,122,6.0,0.0,42,0.03,,,-99.99,,2013-05-26 17:52:00,
2013-05-26 14:01:00,64.0,40.0,30.30,SSE,158,6.0,0.0,41,0.03,,,-99.99,,2013-05-26 18:01:00,
2013-05-26 14:12:00,64.0,40.0,30.30,SSE,158,6.0,0.0,41,0.03,,,-99.99,,2013-05-26 18:12:00,
2013-05-26 14:22:00,65.0,42.0,30.30,ENE,60,2.0,0.0,43,0.03,,,-99.99,,2013-05-26 18:22:00,
2013-05-26 14:32:00,65.0,41.0,30.30,NNW,336,5.0,0.0,41,0.03,,,-99.99,,2013-05-26 18:32:00,
2013-05-26 14:42:00,65.0,41.0,30.30,NNW,336,5.0,0.0,41,0.03,,,-99.99,,2013-05-26 18:42:00,
2013-05-26 14:52:00,65.0,41.0,30.30,NNW,336,5.0,0.0,41,0.03,,,-99.99,,2013-05-26 18:52:00,
2013-05-26 15:01:00,65.0,41.0,30.30,NNW,336,5.0,0.0,41,0.03,,,-99.99,,2013-05-26 19:01:00,
2013-05-26 15:11:00,65.0,41.0,30.30,NNW,336,5.0,0.0,41,0.03,,,-99.99,,2013-05-26 19:11:00,
2013-05-26 15:22:00,66.0,39.0,30.28,South,173,7.0,0.0,37,0.03,,,-99.99,,2013-05-26 19:22:00,
2013-05-26 15:32:00,66.0,39.0,30.28,South,173,7.0,0.0,37,0.03,,,-99.99,,2013-05-26 19:32:00,
2013-05-26 15:42:00,66.0,39.0,30.28,South,173,7.0,0.0,37,0.03,,,-99.99,,2013-05-26 19:42:00,
2013-05-26 15:52:00,66.0,40.0,30.28,SSW,193,5.0,0.0,39,0.03,,,-99.99,,2013-05-26 19:52:00,
2013-05-26 16:02:00,66.0,40.0,30.28,SSW,193,5.0,0.0,39,0.03,,,-99.99,,2013-05-26 20:02:00,
2013-05-26 16:11:00,66.0,40.0,30.28,SSW,193,5.0,0.0,39,0.03,,,-99.99,,2013-05-26 20:11:00,
2013-05-26 16:22:00,67.0,41.0,30.27,South,183,6.0,0.0,39,0.03,,,-99.99,,2013-05-26 20:22:00,
2013-05-26 16:32:00,67.0,41.0,30.27,South,183,6.0,0.0,39,0.03,,,-99.99,,2013-05-26 20:32:00,
2013-05-26 16:42:00,67.0,41.0,30.27,South,183,6.0,0.0,39,0.03,,,-99.99,,2013-05-26 20:42:00,
2013-05-26 16:52:00,67.0,41.0,30.27,South,183,6.0,0.0,39,0.03,,,-99.99,,2013-05-26 20:52:00,
2013-05-26 17:02:00,67.0,41.0,30.25,ESE,118,2.0,0.0,38,0.03,,,-99.99,,2013-05-26 21:02:00,
2013-05-26 17:12:00,67.0,41.0,30.25,ESE,118,2.0,0.0,38,0.03,,,-99.99,,2013-05-26 21:12:00,
2013-05-26 17:22:00,66.0,40.0,30.25,South,184,6.0,0.0,39,0.03,,,-99.99,,2013-05-26 21:22:00,
2013-05-26 17:33:00,66.0,40.0,30.25,South,174,5.0,0.0,38,0.03,,,-99.99,,2013-05-26 21:33:00,
2013-05-26 17:43:00,66.0,40.0,30.25,South,174,5.0,0.0,38,0.03,,,-99.99,,2013-05-26 21:43:00,
2013-05-26 17:53:00,66.0,40.0,30.25,South,174,5.0,0.0,38,0.03,,,-99.99,,2013-05-26 21:53:00,
2013-05-26 18:03:00,66.0,40.0,30.25,South,174,5.0,0.0,38,0.03,,,-99.99,,2013-05-26 22:03:00,
2013-05-26 18:12:00,66.0,40.0,30.25,South,174,5.0,0.0,38,0.03,,,-99.99,,2013-05-26 22:12:00,
2013-05-26 18:23:00,66.0,40.0,30.24,South,176,7.0,0.0,38,0.03,,,-99.99,,2013-05-26 22:23:00,
2013-05-26 18:33:00,66.0,41.0,30.24,South,177,6.0,0.0,40,0.03,,,-99.99,,2013-05-26 22:33:00,
2013-05-26 18:42:00,65.0,39.0,30.24,SE,136,2.0,0.0,39,0.03,,,-99.99,,2013-05-26 22:42:00,
2013-05-26 18:53:00,65.0,39.0,30.24,SE,136,2.0,0.0,39,0.03,,,-99.99,,2013-05-26 22:53:00,
2013-05-26 19:02:00,65.0,39.0,30.24,SE,136,2.0,0.0,39,0.03,,,-99.99,,2013-05-26 23:02:00,
2013-05-26 19:12:00,65.0,39.0,30.24,SE,136,2.0,0.0,39,0.03,,,-99.99,,2013-05-26 23:12:00,
2013-05-26 19:22:00,65.0,40.0,30.23,SSE,159,0.0,0.0,40,0.03,,,-99.99,,2013-05-26 23:22:00,
2013-05-26 19:32:00,65.0,41.0,30.22,SE,124,3.0,0.0,41,0.03,,,-99.99,,2013-05-26 23:32:00,
2013-05-26 19:43:00,65.0,41.0,30.22,SE,124,3.0,0.0,41,0.03,,,-99.99,,2013-05-26 23:43:00,
2013-05-26 19:52:00,64.0,41.0,30.22,SE,129,0.0,0.0,43,0.03,,,-99.99,,2013-05-26 23:52:00,
2013-05-26 20:02:00,64.0,42.0,30.22,SE,129,0.0,0.0,44,0.03,,,-99.99,,2013-05-27 00:02:00,
2013-05-26 20:11:00,64.0,42.0,30.22,SE,129,0.0,0.0,44,0.03,,,-99.99,,2013-05-27 00:11:00,
2013-05-26 20:22:00,64.0,42.0,30.22,SE,129,0.0,0.0,45,0.03,,,-99.99,,2013-05-27 00:22:00,
2013-05-26 20:32:00,63.0,41.0,30.21,ESE,104,0.0,0.0,45,0.03,,,-99.99,,2013-05-27 00:32:00,
2013-05-26 20:42:00,63.0,41.0,30.21,ESE,104,0.0,0.0,45,0.03,,,-99.99,,2013-05-27 00:42:00,
2013-05-26 20:52:00,63.0,42.0,30.21,SE,143,0.0,0.0,46,0.03,,,-99.99,,2013-05-27 00:52:00,
2013-05-26 21:01:00,63.0,42.0,30.21,ESE,121,0.0,0.0,47,0.03,,,-99.99,,2013-05-27 01:01:00,
2013-05-26 21:11:00,63.0,42.0,30.21,ESE,121,0.0,0.0,47,0.03,,,-99.99,,2013-05-27 01:11:00,
2013-05-26 21:22:00,62.0,42.0,30.21,ESE,121,0.0,0.0,48,0.03,,,-99.99,,2013-05-27 01:22:00,
2013-05-26 21:32:00,62.0,42.0,30.21,ESE,121,0.0,0.0,48,0.03,,,-99.99,,2013-05-27 01:32:00,
2013-05-26 21:42:00,62.0,42.0,30.21,ESE,121,0.0,0.0,48,0.03,,,-99.99,,2013-05-27 01:42:00,
2013-05-26 21:52:00,61.0,42.0,30.21,East,96,1.0,0.0,50,0.03,,,-99.99,,2013-05-27 01:52:00,
2013-05-26 22:02:00,61.0,42.0,30.21,East,96,1.0,0.0,50,0.03,,,-99.99,,2013-05-27 02:02:00,
2013-05-26 22:11:00,61.0,42.0,30.21,East,96,1.0,0.0,50,0.03,,,-99.99,,2013-05-27 02:11:00,
2013-05-26 22:22:00,60.0,43.0,30.21,East,96,0.0,0.0,53,0.03,,,-99.99,,2013-05-27 02:22:00,
2013-05-26 22:32:00,59.0,44.0,30.22,East,96,0.0,0.0,57,0.03,,,-99.99,,2013-05-27 02:32:00,
2013-05-26 22:42:00,59.0,44.0,30.22,East,96,0.0,0.0,57,0.03,,,-99.99,,2013-05-27 02:42:00,
2013-05-26 22:52:00,58.0,43.0,30.22,SE,131,0.0,0.0,57,0.03,,,-99.99,,2013-05-27 02:52:00,
2013-05-26 23:02:00,58.0,42.0,30.23,ESE,111,4.0,0.0,56,0.03,,,-99.99,,2013-05-27 03:02:00,
2013-05-26 23:11:00,58.0,42.0,30.23,ESE,111,4.0,0.0,56,0.03,,,-99.99,,2013-05-27 03:11:00,
2013-05-26 23:21:00,58.0,42.0,30.24,SE,129,3.0,0.0,56,0.03,,,-99.99,,2013-05-27 03:21:00,
2013-05-26 23:33:00,58.0,42.0,30.24,ESE,113,3.0,0.0,56,0.03,,,-99.99,,2013-05-27 03:33:00,
2013-05-26 23:43:00,58.0,42.0,30.24,ESE,113,3.0,0.0,56,0.03,,,-99.99,,2013-05-27 03:43:00,
2013-05-26 23:53:00,57.0,42.0,30.24,ESE,115,0.0,0.0,58,0.03,,,-99.99,,2013-05-27 03:53:00,